Date,TemperatureHighF,TemperatureAvgF,TemperatureLowF,DewpointHighF,DewpointAvgF,DewpointLowF,HumidityHigh,HumidityAvg,HumidityLow,PressureMaxIn,PressureMinIn,WindSpeedMaxMPH,WindSpeedAvgMPH,GustSpeedMaxMPH,PrecipitationSumIn
2013-1-1,61.5,45.7,32.7,52.4,39.8,29.6,90,80,67,30.19,30.03,4,1,4,0.00
2013-1-2,62.8,41.7,31.6,51.0,35.5,28.3,90,80,53,30.17,30.03,6,1,6,0.00
2013-1-3,68.7,45.2,30.6,51.6,35.9,26.4,88,72,48,30.17,30.05,6,1,6,0.00
2013-1-4,65.7,41.8,31.6,47.4,31.8,24.3,86,70,34,30.23,30.07,13,1,13,0.00
2013-1-5,61.7,45.1,30.0,47.1,36.6,23.0,85,72,57,30.22,30.05,12,2,12,0.08
2013-1-6,51.8,44.4,39.7,46.8,40.6,36.7,90,87,82,30.08,30.01,12,4,12,0.14
2013-1-7,60.6,44.1,35.4,53.3,39.7,32.7,92,85,68,30.19,30.04,6,1,6,0.00
2013-1-8,66.0,47.9,36.9,53.8,41.4,33.9,90,79,62,30.13,30.03,5,1,7,0.00
2013-1-9,60.6,44.3,34.9,51.8,38.8,30.5,88,81,64,30.10,29.93,18,2,18,0.02
2013-1-10,54.3,42.5,34.3,45.9,35.3,28.5,89,76,57,30.11,29.95,16,3,16,0.00
2013-1-11,56.5,40.9,27.7,40.7,31.7,23.7,88,71,46,30.17,30.04,12,2,12,0.00
2013-1-12,57.4,40.8,32.5,46.2,31.8,23.3,88,72,44,30.18,30.01,5,1,8,0.02
2013-1-13,57.7,39.0,27.3,39.8,27.2,19.8,84,64,40,30.18,30.03,5,2,5,0.00
2013-1-14,54.1,37.3,24.1,35.0,23.5,16.6,76,59,40,30.34,30.14,8,2,18,0.00
2013-1-15,64.0,41.2,25.3,39.1,26.1,17.2,78,57,33,30.42,30.28,4,1,4,0.00
2013-1-16,74.8,46.8,28.0,44.8,30.8,20.0,77,56,33,30.36,30.15,5,1,5,0.00
2013-1-17,81.5,51.2,33.6,48.8,33.0,24.6,76,53,28,30.19,30.02,5,1,5,0.00
2013-1-18,80.4,53.2,32.5,47.7,32.8,21.6,72,49,25,30.15,30.02,5,1,5,0.00
2013-1-19,79.2,50.2,32.2,47.2,31.6,22.9,73,52,24,30.17,30.03,7,1,7,0.00
2013-1-20,79.2,51.5,31.8,46.7,33.7,23.5,76,53,28,30.16,30.00,8,1,8,0.00
2013-1-21,82.8,53.5,36.7,49.0,36.2,28.5,75,54,30,30.12,29.97,5,1,5,0.00
2013-1-22,77.9,52.0,30.6,49.3,33.9,21.6,74,52,34,30.08,29.94,6,1,7,0.00
2013-1-23,62.2,51.3,43.3,40.6,35.1,27.6,69,55,38,30.03,29.94,9,2,9,0.00
2013-1-24,59.5,52.9,47.5,54.4,47.6,40.0,87,82,68,30.12,29.99,5,1,6,0.39
2013-1-25,66.2,56.1,51.6,59.9,51.8,47.5,91,86,76,30.10,29.95,9,2,9,0.06
2013-1-26,65.8,54.1,44.6,59.8,49.3,39.1,91,84,75,29.99,29.87,14,2,15,0.00
2013-1-27,60.6,46.6,37.6,46.2,38.3,32.2,89,74,52,30.08,29.96,16,4,17,0.00
2013-1-28,60.4,46.1,34.2,46.3,37.5,29.7,87,73,53,30.21,30.07,10,3,10,0.00
2013-1-29,62.8,48.7,39.0,48.7,40.4,33.1,86,74,58,30.26,30.15,12,1,12,0.00
2013-1-30,74.8,54.9,36.5,52.4,42.0,31.8,86,64,43,30.31,30.16,7,1,8,0.00
2013-1-31,81.3,58.1,36.3,54.6,43.2,31.7,87,61,37,30.22,30.05,5,1,6,0.00
2013-2-1,79.5,54.3,36.3,55.4,40.2,31.0,85,61,38,30.15,30.02,6,1,6,0.00
2013-2-2,66.2,52.5,43.5,52.2,42.2,35.1,77,68,58,30.21,30.11,5,1,5,0.00
2013-2-3,72.0,50.8,42.3,58.0,43.9,37.7,88,78,55,30.18,30.01,10,2,10,0.00
2013-2-4,78.6,53.2,35.1,57.7,44.3,31.5,90,74,46,30.13,29.93,8,2,8,0.00
2013-2-5,59.2,46.0,40.8,52.0,40.5,36.3,88,81,74,30.08,29.97,10,2,10,0.00
2013-2-6,68.5,49.5,39.0,53.8,41.7,35.3,90,76,50,30.14,30.00,7,2,7,0.00
2013-2-7,64.9,47.0,37.2,50.9,39.5,31.9,89,76,54,30.12,29.95,15,3,15,0.00
2013-2-8,54.7,41.9,34.7,46.9,35.7,29.7,88,79,66,29.96,29.82,8,1,8,0.08
2013-2-9,63.5,42.7,28.6,48.8,34.6,24.9,89,74,45,30.08,29.93,9,2,9,0.00
2013-2-10,66.6,44.8,28.2,46.8,34.5,24.3,87,69,39,30.07,29.90,8,2,8,0.00
2013-2-11,69.6,47.0,29.7,46.6,35.0,24.5,86,66,37,30.20,30.02,6,2,6,0.00
2013-2-12,73.9,49.1,31.1,49.3,37.1,26.6,86,66,41,30.31,30.17,9,3,9,0.00
2013-2-13,75.4,50.7,36.1,51.2,38.2,30.4,85,65,37,30.29,30.10,6,1,6,0.00
2013-2-14,75.4,53.2,35.8,49.7,38.8,31.1,84,61,36,30.18,30.04,9,2,9,0.00
2013-2-15,84.0,58.8,39.0,54.1,40.0,32.8,81,53,27,30.21,30.08,10,2,10,0.00
2013-2-16,84.2,59.0,41.9,54.3,39.3,27.6,73,51,28,30.16,29.94,9,2,9,0.00
2013-2-17,75.4,52.7,36.0,51.7,37.8,28.4,77,59,33,29.99,29.84,7,3,7,0.00
2013-2-18,52.3,46.4,36.1,44.7,39.0,30.5,86,75,71,30.08,29.90,10,1,10,0.00
2013-2-19,56.5,43.5,32.7,45.7,36.6,29.1,87,77,59,29.92,29.69,20,3,21,0.20
2013-2-20,59.5,43.7,30.4,46.5,35.6,27.1,89,75,49,30.01,29.75,17,4,17,0.02
2013-2-21,66.0,46.0,31.8,47.8,35.4,-99.9,88,71,49,30.10,29.98,8,2,9,0.00
2013-2-22,73.2,50.1,31.1,47.8,36.2,26.6,87,62,34,30.19,30.05,6,2,7,0.00
2013-2-23,68.2,49.8,38.1,47.0,37.5,31.8,86,64,43,30.16,29.96,22,5,22,0.00
2013-2-24,71.8,50.1,34.3,41.9,33.1,24.9,80,55,30,30.19,30.03,11,2,11,0.00
2013-2-25,77.5,52.7,31.6,44.9,35.4,23.8,76,55,27,30.21,30.01,13,2,14,0.00
2013-2-26,77.2,52.9,36.1,45.1,34.2,22.3,87,54,25,30.13,29.98,11,3,11,0.00
2013-2-27,82.6,56.5,35.4,41.8,31.4,22.4,64,42,20,30.27,30.13,6,2,6,0.00
2013-2-28,82.9,58.4,36.1,47.5,36.8,24.4,69,47,27,30.37,30.22,8,2,8,0.00
2013-3-1,85.1,62.5,42.6,52.9,43.9,36.9,86,55,27,30.35,30.12,11,2,11,0.00
2013-3-2,83.5,62.0,42.6,50.9,38.4,28.6,78,46,23,30.19,30.00,13,3,13,0.00
2013-3-3,77.9,60.0,45.9,52.8,41.5,35.3,80,52,34,30.05,29.92,12,3,12,0.00
2013-3-4,79.2,55.8,43.9,53.8,43.2,36.0,81,65,35,30.08,29.91,9,2,9,0.00
2013-3-5,68.2,51.7,42.8,50.3,41.1,35.3,83,69,41,30.03,29.91,18,4,18,0.00
2013-3-6,61.2,48.0,39.9,52.6,41.9,33.9,89,80,67,30.04,29.94,20,5,20,0.24
2013-3-7,57.6,47.4,39.6,48.4,40.7,34.3,87,78,67,29.95,29.77,14,2,14,0.26
2013-3-8,56.3,45.8,38.3,50.2,41.4,34.6,89,85,79,30.03,29.73,8,1,9,0.02
2013-3-9,68.5,48.3,36.3,54.6,41.5,33.0,89,78,59,30.23,30.02,14,3,14,0.02
2013-3-10,76.8,54.6,34.5,55.0,42.8,31.1,89,68,38,30.29,30.11,6,2,6,0.00
2013-3-11,84.7,59.0,38.8,52.6,43.0,33.8,85,59,32,30.21,29.99,5,2,5,0.00
2013-3-12,90.1,63.3,41.7,56.4,44.4,34.7,80,54,26,30.10,29.93,7,2,7,0.00
2013-3-13,92.8,67.1,44.4,60.3,44.7,30.4,82,50,20,30.11,29.95,10,3,10,0.00
2013-3-14,93.6,67.0,47.1,59.2,47.0,37.3,75,52,26,30.07,29.95,9,2,9,0.00
2013-3-15,93.4,69.6,49.3,53.7,44.0,35.9,74,44,20,30.04,29.88,10,3,12,0.00
2013-3-16,89.2,64.9,44.8,55.0,45.0,37.2,84,53,26,30.02,29.88,17,4,17,0.00
2013-3-17,85.1,61.5,44.4,49.4,40.5,31.9,76,50,20,30.05,29.89,12,4,12,0.00
2013-3-18,96.6,63.6,38.5,52.3,39.9,31.2,78,48,19,30.06,29.93,13,2,13,0.00
2013-3-19,110.5,66.1,39.2,57.5,37.2,-99.9,82,48,17,30.07,29.95,14,-74,17,0.00
2013-3-20,50.0,50.0,50.0,32.1,32.1,32.1,50,50,50,30.06,29.97,32,32,32,0.00
2013-3-21,86.5,47.9,32.0,57.9,37.7,-99.9,87,60,1,30.01,29.83,32,19,32,0.00
2013-3-22,78.8,54.4,35.4,51.3,29.6,-99.9,90,49,17,29.97,29.86,11,-17,12,0.00
2013-3-23,83.1,57.9,36.1,34.9,29.1,23.7,65,38,16,30.06,29.90,5,2,5,0.00
2013-3-24,97.5,65.1,40.5,45.9,35.0,27.2,65,39,14,30.04,29.83,14,3,14,0.00
2013-3-25,93.7,62.4,40.3,52.0,39.9,33.3,81,50,18,29.96,29.79,14,2,14,0.00
2013-3-26,95.5,61.6,41.0,52.0,41.6,34.0,85,55,20,29.95,29.80,14,3,14,0.00
2013-3-27,91.2,61.3,41.5,53.1,44.5,35.8,81,59,27,29.97,29.86,17,2,17,0.00
2013-3-28,85.5,58.7,44.2,57.4,46.8,40.0,87,68,37,30.03,29.93,12,2,12,0.02
2013-3-29,91.4,63.5,42.4,59.5,47.3,39.4,90,61,30,30.04,29.93,15,3,18,0.00
2013-3-30,85.3,62.3,46.8,52.9,47.7,41.9,86,63,30,30.03,29.95,21,4,21,0.00
2013-3-31,88.3,62.2,45.1,59.8,48.6,42.3,91,66,33,30.04,29.95,20,4,20,0.00
2013-4-1,76.6,58.1,46.2,59.3,49.0,39.8,90,74,43,30.08,30.01,21,4,21,0.06
2013-4-2,97.3,73.9,43.5,59.4,49.8,39.3,90,49,23,30.12,29.94,8,2,10,0.00
2013-4-3,88.3,63.8,43.5,55.7,46.4,38.1,84,57,27,30.07,29.87,15,3,15,0.00
2013-4-4,78.4,60.9,48.0,57.2,48.5,39.7,79,65,45,30.07,29.93,15,3,15,0.02
2013-4-5,82.0,62.5,51.4,55.2,47.6,40.3,83,62,29,30.11,29.96,9,3,10,0.00
2013-4-6,84.6,61.7,46.0,52.8,46.3,41.5,88,62,29,30.14,29.96,12,5,12,0.00
2013-4-7,84.7,63.2,48.9,53.2,47.2,41.1,85,61,30,30.08,29.82,14,5,14,0.00
2013-4-8,69.6,56.0,41.7,43.6,36.6,29.7,76,51,28,29.88,29.75,22,7,22,0.00
2013-4-9,80.8,61.4,41.4,43.1,35.3,30.6,73,42,20,29.99,29.87,15,4,15,0.00
2013-4-10,93.6,66.6,42.8,43.0,37.6,28.7,62,38,17,30.11,29.91,9,3,10,0.00
2013-4-11,86.4,64.6,47.5,50.2,44.6,39.1,80,52,28,29.98,29.72,13,4,17,0.00
2013-4-12,91.9,65.7,44.8,51.5,43.6,38.3,83,51,20,29.87,29.68,18,4,18,0.00
2013-4-13,90.0,63.0,43.9,50.6,42.8,35.6,79,52,25,29.86,29.68,15,4,15,0.00
2013-4-14,86.5,59.6,39.9,46.0,39.3,34.3,82,52,22,29.85,29.70,13,5,18,0.00
2013-4-15,74.1,54.8,40.3,46.3,37.7,25.8,81,56,29,29.89,29.76,19,5,19,0.00
2013-4-16,72.7,53.2,35.8,38.8,30.0,20.6,77,46,17,30.03,29.89,17,5,22,0.00
2013-4-17,77.2,58.0,38.8,37.8,29.0,23.5,65,37,17,30.16,30.03,12,3,12,0.00
2013-4-18,83.1,61.1,38.8,35.7,28.7,24.4,57,34,14,30.22,30.08,12,4,13,0.00
2013-4-19,91.9,60.0,42.4,40.7,33.4,27.2,58,40,16,30.20,29.94,10,3,10,0.00
2013-4-20,93.9,68.4,49.8,49.2,42.7,37.3,71,44,19,30.00,29.84,11,4,12,0.00
2013-4-21,100.6,72.6,48.7,46.6,39.4,33.7,62,35,12,29.96,29.82,12,3,12,0.00
2013-4-22,95.9,72.8,51.4,50.7,42.2,33.4,55,36,19,29.92,29.74,15,3,15,0.00
2013-4-23,97.2,67.8,46.6,52.1,42.1,36.3,72,44,15,29.87,29.74,21,3,22,0.00
2013-4-24,69.4,55.1,44.2,51.2,44.6,37.3,82,68,53,29.91,29.79,23,8,23,0.02
2013-4-25,79.0,56.2,46.9,53.5,44.9,40.6,84,68,38,30.04,29.90,22,3,22,0.00
2013-4-26,95.9,67.6,44.1,54.0,43.3,36.9,84,50,14,30.13,29.98,12,3,15,0.00
2013-4-27,102.6,67.9,46.2,53.2,44.0,38.8,76,49,17,30.14,29.94,8,3,9,0.00
2013-4-28,105.1,75.4,48.2,51.5,41.3,34.3,68,36,10,29.98,29.77,10,3,10,0.00
2013-4-29,103.6,77.2,52.5,51.9,44.2,35.5,60,34,16,29.84,29.66,14,2,15,0.00
2013-4-30,91.0,70.4,52.2,55.6,46.2,39.8,66,44,25,29.79,29.64,16,4,16,0.00
2013-5-1,96.4,69.2,44.4,52.1,43.2,35.2,77,45,14,30.03,29.79,13,2,13,0.00
2013-5-2,99.5,74.9,48.4,50.7,39.0,31.4,67,34,10,30.10,29.97,13,3,13,0.00
2013-5-3,102.0,76.8,51.6,43.1,34.6,26.0,46,25,10,30.03,29.72,18,4,18,0.00
2013-5-4,89.2,68.0,51.3,45.9,36.6,22.9,78,36,19,29.76,29.58,29,8,29,0.00
2013-5-5,65.7,57.4,52.3,49.4,47.3,45.5,81,70,55,29.78,29.64,20,6,24,0.00
2013-5-6,64.2,57.3,52.7,54.8,50.1,46.4,87,77,64,29.92,29.77,12,3,12,0.18
2013-5-7,80.8,62.9,51.8,54.5,48.1,41.4,83,61,36,29.98,29.88,22,4,22,0.00
2013-5-8,82.9,62.9,48.7,53.3,46.7,42.0,81,58,34,30.04,29.95,12,3,12,0.00
2013-5-9,93.0,64.2,44.4,52.1,46.1,39.6,86,58,22,30.08,29.95,19,4,19,0.00
2013-5-10,106.2,71.2,47.7,59.1,50.7,42.7,86,55,21,30.12,29.94,14,4,14,0.00
2013-5-11,111.0,79.0,53.8,61.2,51.9,43.2,76,45,18,30.05,29.91,16,4,16,0.00
2013-5-12,117.0,82.5,57.0,59.4,48.5,42.2,61,35,13,30.07,29.89,11,3,16,0.00
2013-5-13,112.5,77.6,55.9,51.3,44.2,28.9,63,37,11,30.01,29.83,15,3,17,0.00
2013-5-14,92.1,71.8,48.2,56.6,50.0,41.3,83,49,30,29.97,29.84,21,7,21,0.00
2013-5-15,100.6,70.0,45.1,53.3,44.6,40.3,86,49,15,30.03,29.87,10,4,11,0.00
2013-5-16,63.1,39.8,46.6,45.2,24.6,-99.9,85,69,35,29.97,29.83,12,-122,16,0.00
2013-5-17,87.8,64.9,46.6,49.3,44.2,39.8,79,53,23,29.96,29.87,14,5,14,0.00
2013-5-18,92.5,63.4,43.7,43.9,37.2,27.6,83,47,10,30.08,29.93,16,5,18,0.00
2013-5-19,100.2,70.3,48.7,51.4,45.2,39.6,86,48,17,30.04,29.84,16,5,16,0.00
2013-5-20,106.0,76.0,50.7,45.5,40.5,34.6,62,33,12,29.95,29.79,13,3,13,0.00
2013-5-21,96.3,61.7,53.8,49.9,22.0,-99.9,58,31,17,29.91,29.77,16,-126,16,0.00
2013-5-22,63.5,43.0,42.4,39.0,25.5,-99.9,81,59,17,29.91,29.75,60,-68,60,0.00
2013-5-23,59.5,38.1,44.1,42.0,14.9,-99.9,76,48,21,29.93,29.83,12,-153,12,0.00
2013-5-24,58.3,38.0,42.4,39.3,7.0,-99.9,80,50,25,29.95,29.84,20,-219,20,0.00
2013-5-25,52.0,42.7,52.0,39.3,14.3,-99.9,62,51,62,29.97,29.88,7,-173,7,0.00
2013-5-26,52.0,33.5,42.1,39.3,-10.3,-99.9,78,24,12,30.03,29.91,8,-250,8,0.00
2013-5-27,63.7,40.7,48.0,64.1,16.5,-99.9,79,31,19,30.03,29.90,11,-213,11,0.00
2013-5-28,75.9,50.5,59.4,64.1,34.6,-99.9,76,37,28,29.95,29.76,13,-115,13,0.00
2013-5-29,92.1,69.6,50.7,56.7,46.4,40.7,79,49,18,29.89,29.72,16,6,16,0.00
2013-5-30,95.2,68.3,46.2,46.1,39.9,28.5,82,44,11,29.90,29.78,16,5,16,0.00
2013-5-31,104.2,75.0,49.3,45.5,40.9,37.5,68,35,13,29.94,29.78,19,4,19,0.00
2013-6-1,108.9,81.3,57.2,47.6,43.1,39.0,55,30,12,29.86,29.66,10,4,10,0.00
2013-6-2,92.5,70.4,55.2,55.0,48.9,41.9,80,50,27,29.72,29.61,22,8,26,0.00
2013-6-3,79.0,63.1,53.8,54.9,51.2,48.3,82,67,43,29.80,29.70,19,4,19,0.00
2013-6-4,77.9,63.5,50.2,55.4,51.0,45.2,85,66,43,29.89,29.79,21,7,23,0.00
2013-6-5,90.1,64.9,49.1,59.1,50.5,45.0,88,64,34,29.93,29.78,21,4,21,0.00
2013-6-6,97.0,69.8,48.6,60.1,50.4,43.3,86,55,29,29.88,29.72,16,3,16,0.00
2013-6-7,57.9,45.5,50.7,47.7,28.3,-99.9,83,71,66,29.84,29.63,6,-123,6,0.00
2013-6-8,63.5,39.3,51.4,56.2,16.4,-99.9,83,51,36,29.79,29.64,26,-213,26,0.00
2013-6-9,75.9,53.4,55.2,56.6,27.4,-99.9,77,40,41,29.81,29.77,12,-168,12,0.00
2013-6-10,75.9,75.9,75.9,56.6,56.6,56.6,1,1,1,29.89,29.81,0,0,0,0.00
2013-6-11,78.1,74.1,57.9,56.6,54.9,46.5,66,10,1,29.90,29.77,1,0,1,0.00
2013-6-12,92.1,69.4,50.0,56.6,46.9,32.1,79,48,21,29.94,29.80,32,6,32,0.00
2013-6-13,64.2,42.5,46.4,41.4,26.2,-99.9,79,67,40,30.02,29.84,32,-96,32,0.00
2013-6-14,93.9,69.1,49.3,48.3,28.0,-99.9,70,32,14,29.91,29.72,13,-78,13,0.00
2013-6-15,87.6,69.6,51.1,52.5,42.7,32.8,68,40,25,29.93,29.78,20,5,20,0.00
2013-6-16,103.8,72.9,47.5,51.9,44.4,39.2,82,46,12,30.01,29.88,11,4,11,0.00
2013-6-17,103.8,72.0,53.4,50.9,43.1,-99.9,69,42,14,30.01,29.87,18,-4,18,0.00
2013-6-18,94.3,68.6,51.1,54.0,47.1,41.6,86,53,19,29.97,29.81,21,6,21,0.00
2013-6-19,97.3,69.4,50.2,47.1,43.6,41.0,74,45,18,29.97,29.82,17,6,18,0.00
2013-6-20,101.8,71.3,49.3,48.0,42.5,39.2,71,42,14,29.92,29.78,13,5,13,0.00
2013-6-21,103.3,70.9,49.6,48.3,43.3,38.6,75,44,14,29.91,29.78,11,5,11,0.00
2013-6-22,105.4,76.4,49.3,51.1,43.5,38.6,72,37,13,29.88,29.74,13,4,13,0.00
2013-6-23,96.4,70.9,53.2,56.2,48.0,-99.9,81,51,20,29.82,29.71,15,5,15,0.00
2013-6-24,82.2,66.9,56.1,59.5,52.4,-99.9,77,63,46,29.87,29.75,19,-6,20,0.00
2013-6-25,93.7,72.6,55.2,61.8,54.7,-99.9,86,59,32,29.92,29.83,16,-7,16,0.00
2013-6-26,105.6,80.7,62.4,66.5,60.4,55.8,84,56,25,29.97,29.84,14,4,14,0.00
2013-6-27,111.7,84.0,64.0,65.7,40.4,-99.9,74,39,10,29.98,29.88,57,-100,57,0.00
2013-6-28,117.3,88.8,69.6,62.6,48.8,-99.9,55,32,16,29.94,29.79,11,4,11,0.00
2013-6-29,87.8,60.0,70.7,52.7,30.1,-99.9,44,35,13,29.85,29.70,13,-117,15,0.00
2013-6-30,117.7,90.6,68.4,55.0,50.0,46.1,47,28,13,29.78,29.66,12,5,14,0.00
2013-7-1,99.0,70.4,67.8,61.1,24.6,-99.9,48,28,19,29.81,29.71,17,-183,17,0.00
2013-7-2,97.0,90.0,97.0,60.4,48.9,-99.9,30,28,30,29.86,29.79,12,-61,12,0.00
2013-7-3,97.0,82.6,97.0,60.4,36.6,-99.9,30,26,30,29.84,29.67,12,-138,12,0.00
2013-7-4,97.0,72.3,97.0,60.4,19.6,-99.9,30,22,30,29.73,29.62,12,-245,12,0.00
2013-7-5,97.0,81.5,97.0,60.4,34.8,-99.9,30,25,30,29.74,29.64,12,-150,12,0.00
2013-7-6,97.0,82.8,97.0,60.4,36.9,-99.9,30,26,30,29.76,29.64,12,-136,12,0.00
2013-7-7,97.0,78.5,97.0,60.4,29.9,-99.9,30,24,30,29.79,29.69,12,-180,12,0.00
2013-7-8,97.0,85.8,97.0,60.4,41.9,-99.9,30,27,30,29.90,29.79,12,-105,12,0.00
2013-7-9,97.0,75.3,97.0,60.4,24.6,-99.9,30,23,30,29.96,29.83,12,-214,12,0.00
2013-7-10,97.0,86.7,97.0,60.4,43.3,-99.9,30,27,30,29.90,29.89,12,-96,12,0.00